Weather History for KEVW - January, 2012

Change the Weather History Date:

Wednesday, January 11, 2012

  Actual Average Record
Temperature  
Mean Temperature 17 °F 22 °F  
Max Temperature 25 °F 29 °F 44 °F (1999)
Min Temperature 8 °F 14 °F -4 °F (2011)
Degree Days  
Heating Degree Days 48 43  
Month to date heating degree days 403 483  
Since 1 July heating degree days 3671 3962  
Cooling Degree Days 0 0  
Month to date cooling degree days 0 0  
Year to date cooling degree days 0 0  
Moisture  
Dew Point 6 °F    
Average Humidity 61    
Maximum Humidity 77    
Minimum Humidity 45    
Precipitation  
Precipitation 0.00 in 0.02 in 0.06 in (2015)
Month to date precipitation 0.03 0.21  
Year to date precipitation 0.03 0.21  
Sea Level Pressure  
Sea Level Pressure 30.31 in    
Wind  
Wind Speed 8 mph (WNW)    
Max Wind Speed 20 mph    
Max Gust Speed 24 mph    
Visibility 10 miles    
Events Snow    
T = Trace of Precipitation, MM = Missing Value Source: NWS Daily Summary

Daily Weather History Graph

Daily Weather History Graph

Search for Another Location

Airport or City:

Trip Planner

Search our weather history database for the weather conditions in past years. The results will help you decide how hot, cold, wet, or windy it might be!

Date:

Astronomy

Jan. 11, 2012 Rise Set
Actual Time 7:49 AM MST 5:15 PM MST
Civil Twilight 7:18 AM MST 5:45 PM MST
Nautical Twilight 6:44 AM MST 6:20 PM MST
Astronomical Twilight 6:10 AM MST 6:53 PM MST
Moon 8:19 PM MST (1/11) 9:01 AM MST (1/11)
Length of Visible Light 10h 27m
Length of Day
9h 25m
Waning Gibbous, 93% of the Moon is Illuminated
Jan 11
Waning Gibbous
Jan 16
Last Quarter
Jan 23
New
Jan 30
First Quarter
Feb 7
Full

Hourly Weather History & Observations

Time (MST) Temp. Windchill Dew Point Humidity Pressure Visibility Wind Dir Wind Speed Gust Speed Precip Events Conditions
12:53 AM 21.0 °F 11.4 °F 15.1 °F 78% 30.11 in 10.0 mi WSW 8.1 mph - N/A   Clear
1:53 AM 18.0 °F 7.7 °F 10.9 °F 74% 30.12 in 10.0 mi SW 8.1 mph - N/A   Clear
4:53 AM 19.0 °F 6.8 °F 10.0 °F 68% 30.17 in 10.0 mi West 11.5 mph - N/A   Overcast
5:53 AM 18.0 °F 6.9 °F 10.0 °F 71% 30.22 in 10.0 mi West 9.2 mph - N/A   Overcast
6:53 AM 17.1 °F 6.6 °F 14.0 °F 88% 30.26 in 4.0 mi North 8.1 mph - 0.00 in Snow Light Snow
7:20 AM 15.8 °F 4.2 °F 10.4 °F 79% 30.17 in 10.0 mi North 9.2 mph - 0.00 in   Mostly Cloudy
7:40 AM 17.6 °F 5.7 °F 8.6 °F 68% 30.18 in 10.0 mi North 10.4 mph - 0.00 in   Overcast
7:53 AM 17.1 °F 6.6 °F 8.1 °F 68% 30.28 in 10.0 mi North 8.1 mph - 0.00 in   Overcast
8:13 AM 15.8 °F 7.2 °F 8.6 °F 73% 30.20 in 10.0 mi North 5.8 mph - N/A   Overcast
8:53 AM 17.1 °F 5.8 °F 5.0 °F 59% 30.31 in 10.0 mi NNW 9.2 mph - N/A   Overcast
9:53 AM 17.1 °F 6.6 °F 6.1 °F 62% 30.33 in 10.0 mi North 8.1 mph - N/A   Scattered Clouds
10:53 AM 19.9 °F 14.9 °F 8.1 °F 60% 30.33 in 10.0 mi WSW 3.5 mph - N/A   Clear
11:53 AM 21.0 °F 13.4 °F 8.1 °F 57% 30.34 in 10.0 mi West 5.8 mph - N/A   Clear
12:53 PM 21.9 °F 11.0 °F 8.1 °F 55% 30.33 in 10.0 mi SW 10.4 mph - N/A   Clear
1:53 PM 24.1 °F 15.2 °F 8.1 °F 51% 30.34 in 10.0 mi West 8.1 mph - N/A   Clear
2:53 PM 23.0 °F 8.7 °F 5.0 °F 46% 30.34 in 10.0 mi West 18.4 mph - N/A   Partly Cloudy
4:53 PM 19.0 °F 10.0 °F 1.9 °F 47% 30.38 in 10.0 mi NNW 6.9 mph - N/A   Clear
5:53 PM 14.0 °F 2.9 °F -0.9 °F 52% 30.41 in 10.0 mi North 8.1 mph - N/A   Clear
6:53 PM 12.9 °F 2.6 °F 1.9 °F 62% 30.45 in 10.0 mi North 6.9 mph - N/A   Clear
7:53 PM 12.0 °F 0.5 °F 1.0 °F 61% 30.45 in 10.0 mi NNW 8.1 mph - N/A   Clear
8:53 PM 10.0 °F - 1.0 °F 67% 30.47 in 10.0 mi Calm Calm - N/A   Clear
9:53 PM 12.0 °F 2.7 °F 1.0 °F 61% 30.45 in 10.0 mi SSE 5.8 mph - N/A   Clear
10:53 PM 9.0 °F 2.4 °F -0.9 °F 64% 30.45 in 10.0 mi SSE 3.5 mph - N/A   Clear
11:53 PM 8.1 °F 1.4 °F -2.9 °F 61% 30.45 in 10.0 mi SSW 3.5 mph - N/A   Clear